{"data":{"norad_id":49469,"intl_designator":"2021-106A","name":"GLOBAL-14","alt_names":[],"object_type":"PAYLOAD","status":"ACTIVE","operator":null,"country":"US","launch_date":"2021-11-18","launch_site_code":"RLLB","launch_vehicle":null,"mission":null,"orbit_class":"UNKNOWN","rcs_meters":null,"size_class":null,"mass_kg":null,"dimensions":null,"purposes":[],"wikipedia_slug":null,"has_3d_model":false,"image_url":null,"decayed_at":null,"tle_current":{"epoch":"2026-05-25T01:58:56.451648Z","epoch_age_seconds":61803,"freshness":"FRESH","line1":"1 49469U 21106A   26145.08259782  .00022912  00000+0  41000-3 0  9994","line2":"2 49469  42.0044  68.2642 0016732 227.6412 132.3015 15.49334935254540","mean_motion":15.49334935,"eccentricity":0.0016732,"inclination_deg":42.0044,"raan_deg":68.2642,"arg_perigee_deg":227.6412,"mean_anomaly_deg":132.3015,"bstar":0.00041,"rev_number":25454,"period_min":92.943105294402,"perigee_km":407.29801319684,"apogee_km":430.04284958524,"semimajor_km":6796.807431391,"source":"CELESTRAK","updated_at":"2026-05-25T13:37:57.236021Z"}}}